Regional Weather Roundup
Issued by NWS

Home | Current Version | Previous Version | Graphics & Text | Print | Product List | Glossary On
Versions: 1 2 3 4 5 6 7 8 9 10 11 12 13 14 15 16 17 18 19 20 21 22 23 24 25 26 27 28 29 30 31 32 33 34 35 36 37 38 39 40 41 42 43 44 45 46 47 48
000
ASUS45 KBOI 130210
RWRID
WEATHER ROUNDUP FOR IDAHO
NATIONAL WEATHER SERVICE BOISE ID
800 PM MDT SAT JUL 12 2014

NOTE: "FAIR" INDICATES FEW OR NO CLOUDS BELOW 12000 FEET
WITH NO SIGNIFICANT WEATHER AND/OR OBSTRUCTIONS TO VISIBILITY

IDZ012-014-130300-
SOUTHWEST IDAHO


CITY           SKY/WX    TMP DP  RH WIND       PRES   REMARKS
BOISE          SUNNY     98  34  10 N10       30.03S HX  92
CALDWELL       SUNNY     99  43  14 CALM      30.02S HX  94
$$

IDZ016-017-130300-
SOUTHCENTRAL IDAHO


CITY           SKY/WX    TMP DP  RH WIND       PRES   REMARKS
BURLEY         MOSUNNY   79  59  50 SW5       30.13S
JEROME         SUNNY     89  51  27 S5        30.13S
TWIN FALLS     MOSUNNY   91  41  17 W5        30.14R
$$

IDZ019>023-130300-
SOUTHEAST IDAHO


CITY           SKY/WX    TMP DP  RH WIND       PRES   REMARKS
IDAHO FALLS    MOSUNNY   80  59  48 N5        30.22R
POCATELLO      SUNNY     85  53  33 NE10      30.18R
REXBURG        PTSUNNY   74  53  48 E13G22    30.25R
$$

IDZ006-010-011-018-031-032-130300-
CENTRAL IDAHO MOUNTAINS


CITY           SKY/WX    TMP DP  RH WIND       PRES   REMARKS
MCCALL         MOSUNNY   84  38  19 NW6       30.21R
HAILEY         MOSUNNY   84  52  32 MISG      30.22S
STANLEY          N/A     82  36  19 N7        30.32S
SALMON         MOSUNNY   86  46  25 CALM      30.12S
CHALLIS        MOSUNNY   83  48  29 N5        30.19S
$$

IDZ002-004-006-007-026-130300-
NORTHERN IDAHO


CITY           SKY/WX    TMP DP  RH WIND       PRES   REMARKS
LEWISTON       SUNNY     98  44  15 N8        30.00S HX  94
LOWELL           N/A     76  58  53 CALM      30.00R
COEUR D`ALENE  SUNNY     91  46  21 N5        30.06F
MULLAN PASS    MOSUNNY   71  39  31 CALM      30.35S
$$


USA.gov is the U.S. government's official web portal to all federal, state and local government web resources and services.